This is the latest recevied weather packets stored in our database for station/object IU2EVW-3. If no packets are shown the sender has not sent any weather packets the latest 10 day(s).
| Time | Temp. | Humidity | Pressure | Rain* | Wind** | Luminosity | Snow |
|---|---|---|---|---|---|---|---|
| 1777799993 | 20° C | 30% | 1019.7 hPa | - | - | - | - |
| 1777798792 | 19.44° C | 35% | 1019.7 hPa | - | - | - | - |
| 1777797591 | 18.89° C | 36% | 1019.9 hPa | - | - | - | - |
| 1777796389 | 18.89° C | 36% | 1020 hPa | - | - | - | - |
| 1777795188 | 18.33° C | 38% | 1020.1 hPa | - | - | - | - |
| 1777793987 | 18.33° C | 37% | 1020.1 hPa | - | - | - | - |
| 1777792786 | 18.33° C | 35% | 1020.2 hPa | - | - | - | - |
| 1777791585 | 18.89° C | 40% | 1020.1 hPa | - | - | - | - |
| 1777790384 | 18.33° C | 41% | 1020.2 hPa | - | - | - | - |
| 1777789183 | 18.33° C | 45% | 1020.2 hPa | - | - | - | - |
| 1777787982 | 17.78° C | 45% | 1020.2 hPa | - | - | - | - |
| 1777786780 | 17.22° C | 46% | 1020.1 hPa | - | - | - | - |
| 1777785579 | 17.22° C | 46% | 1019.9 hPa | - | - | - | - |
| 1777784378 | 15° C | 51% | 1020 hPa | - | - | - | - |
| 1777783177 | 14.44° C | 53% | 1020.2 hPa | - | - | - | - |
| 1777781976 | 13.89° C | 53% | 1020.1 hPa | - | - | - | - |
| 1777780774 | 13.89° C | 53% | 1020.2 hPa | - | - | - | - |
| 1777779573 | 13.89° C | 52% | 1020.1 hPa | - | - | - | - |
| 1777778372 | 13.89° C | 52% | 1020.1 hPa | - | - | - | - |
| 1777777171 | 13.89° C | 52% | 1020.1 hPa | - | - | - | - |
| 1777775969 | 14.44° C | 52% | 1020.1 hPa | - | - | - | - |
| 1777774768 | 14.44° C | 50% | 1020.3 hPa | - | - | - | - |
| 1777773567 | 14.44° C | 48% | 1020.3 hPa | - | - | - | - |
| 1777772366 | 15° C | 47% | 1020.2 hPa | - | - | - | - |
| 1777771164 | 15° C | 46% | 1020.4 hPa | - | - | - | - |
* Rain since midnight (hover to see other rain measurements)
** Current wind speed in m/s (hover to see current wind gust speed)